| time (UTC) | temp F | wind direction | speed MPH | gust MPH | rain 1hr in | rain 24hr in | rain mn in | humidity % | barometer mb |
| 20260504044554 | 53 | 230 | 1.0 | 5.0 | 0.04 | 0.91 | 0.18 | 94 | 1013.0 |
| 20260504043051 | 54 | 15 | 2.0 | 5.0 | 0.02 | 0.87 | 0.14 | 94 | 1013.1 |
| 20260504041553 | 55 | 8 | 2.0 | 4.0 | 0.01 | 0.86 | 0.14 | 95 | 1012.9 |
| 20260504040054 | 55 | 278 | 0.0 | 3.0 | 0.01 | 0.86 | 0.14 | 95 | 1012.9 |
| 20260504034550 | 55 | 0 | 0.0 | 2.0 | 0.01 | 0.86 | 0.14 | 95 | 1013.0 |
| 20260504033104 | 55 | 293 | 0.0 | 4.0 | 0.00 | 0.85 | 0.12 | 95 | 1013.2 |
| 20260504031601 | 55 | 0 | 0.0 | 4.0 | 0.00 | 0.85 | 0.12 | 95 | 1013.2 |
| 20260504030055 | 55 | 0 | 1.0 | 2.0 | 0.00 | 0.85 | 0.12 | 95 | 1013.1 |
| 20260504024603 | 55 | 193 | 1.0 | 3.0 | 0.00 | 0.85 | 0.12 | 95 | 1013.1 |
| 20260504023056 | 55 | 0 | 0.0 | 2.0 | 0.00 | 0.85 | 0.12 | 95 | 1013.2 |
| 20260504021557 | 55 | 0 | 0.0 | 1.0 | 0.00 | 0.85 | 0.12 | 95 | 1013.1 |
| 20260504020052 | 55 | 233 | 0.0 | 1.0 | 0.00 | 0.85 | 0.12 | 95 | 1013.2 |
| 20260504014552 | 55 | 216 | 1.0 | 3.0 | 0.00 | 0.85 | 0.12 | 95 | 1013.3 |
| 20260504013104 | 55 | 351 | 0.0 | 2.0 | 0.00 | 0.85 | 0.12 | 95 | 1013.3 |
| 20260504011553 | 55 | 346 | 0.0 | 2.0 | 0.00 | 0.85 | 0.12 | 95 | 1013.2 |
| 20260504010057 | 55 | 1 | 1.0 | 5.0 | 0.00 | 0.85 | 0.12 | 95 | 1013.3 |
| 20260504004603 | 55 | 0 | 0.0 | 3.0 | 0.00 | 0.85 | 0.12 | 95 | 1013.2 |
| 20260504003054 | 55 | 32 | 1.0 | 4.0 | 0.00 | 0.85 | 0.12 | 95 | 1013.3 |
| 20260504001554 | 55 | 193 | 1.0 | 4.0 | 0.00 | 0.85 | 0.12 | 95 | 1013.4 |
| 20260504000055 | 55 | 352 | 1.0 | 5.0 | 0.00 | 0.85 | 0.12 | 95 | 1013.6 |
| 20260503234552 | 55 | 306 | 1.0 | 3.0 | 0.00 | 0.85 | 0.12 | 95 | 1013.6 |
| 20260503233055 | 55 | 209 | 1.0 | 3.0 | 0.03 | 0.85 | 0.12 | 95 | 1013.7 |
| 20260503231557 | 55 | 307 | 2.0 | 6.0 | 0.07 | 0.85 | 0.12 | 95 | 1013.7 |
| 20260503230054 | 56 | 176 | 1.0 | 4.0 | 0.12 | 0.85 | 0.12 | 95 | 1013.8 |
| 20260503224554 | 56 | 359 | 2.0 | 10.0 | 0.14 | 0.85 | 0.12 | 95 | 1013.8 |
| 20260503223057 | 56 | 271 | 1.0 | 4.0 | 0.13 | 0.81 | 0.08 | 95 | 1013.8 |
| 20260503221555 | 56 | 354 | 2.0 | 7.0 | 0.10 | 0.77 | 0.04 | 95 | 1013.5 |
| 20260503214557 | 56 | 338 | 4.0 | 8.0 | 0.14 | 0.70 | 0.70 | 94 | 1013.4 |
| 20260503213054 | 56 | 300 | 2.0 | 10.0 | 0.11 | 0.68 | 0.68 | 95 | 1013.4 |
| 20260503211603 | 56 | 295 | 2.0 | 5.0 | 0.11 | 0.67 | 0.67 | 95 | 1013.2 |
| 20260503210054 | 56 | 49 | 1.0 | 5.0 | 0.09 | 0.66 | 0.66 | 94 | 1013.1 |
| 20260503204551 | 58 | 6 | 1.0 | 3.0 | 0.00 | 0.56 | 0.56 | 95 | 1012.9 |
| 20260503203053 | 58 | 0 | 0.0 | 0.0 | 0.00 | 0.56 | 0.56 | 95 | 1012.2 |
| 20260503201556 | 58 | 0 | 0.0 | 0.0 | 0.00 | 0.56 | 0.56 | 95 | 1012.0 |
| 20260503200053 | 58 | 0 | 0.0 | 0.0 | 0.00 | 0.56 | 0.56 | 95 | 1012.0 |
| 20260503194557 | 58 | 0 | 0.0 | 0.0 | 0.00 | 0.56 | 0.56 | 95 | 1011.7 |
| 20260503193056 | 58 | 0 | 0.0 | 0.0 | 0.05 | 0.56 | 0.56 | 95 | 1011.7 |
| 20260503191554 | 58 | 0 | 0.0 | 0.0 | 0.10 | 0.56 | 0.56 | 94 | 1012.0 |
| 20260503190055 | 58 | 0 | 0.0 | 1.0 | 0.11 | 0.56 | 0.56 | 94 | 1011.7 |
| 20260503184606 | 59 | 0 | 0.0 | 0.0 | 0.10 | 0.55 | 0.55 | 95 | 1011.7 |
| 20260503183057 | 59 | 0 | 0.0 | 3.0 | 0.05 | 0.51 | 0.51 | 94 | 1011.8 |
| 20260503181552 | 59 | 356 | 0.0 | 2.0 | 0.00 | 0.46 | 0.46 | 94 | 1011.9 |
| 20260503180054 | 59 | 0 | 0.0 | 3.0 | 0.00 | 0.45 | 0.45 | 94 | 1011.7 |
| 20260503174607 | 59 | 176 | 1.0 | 4.0 | 0.08 | 0.48 | 0.45 | 93 | 1011.5 |
| 20260503173101 | 60 | 0 | 0.0 | 4.0 | 0.16 | 0.48 | 0.45 | 94 | 1011.1 |
| 20260503171552 | 60 | 0 | 0.0 | 6.0 | 0.18 | 0.48 | 0.45 | 94 | 1011.2 |
| 20260503150103 | 66 | 62 | 1.0 | 3.0 | 0.00 | 0.29 | 0.25 | 92 | 1010.3 |
| 20260503100107 | 62 | 312 | 2.0 | 5.0 | 0.00 | 0.55 | 0.00 | 93 | 1012.9 |
| 20260503081554 | 58 | 195 | 0.0 | 2.0 | 0.00 | 0.55 | 0.00 | 94 | 1013.0 |
| 20260503071612 | 57 | 0 | 0.0 | 2.0 | 0.00 | 0.55 | 0.00 | 96 | 1013.0 |
| 20260503054553 | 53 | 0 | 0.0 | 1.0 | 0.00 | 0.55 | 0.00 | 95 | 1013.0 |
| 20260503053054 | 53 | 0 | 0.0 | 1.0 | 0.00 | 0.55 | 0.00 | 95 | 1013.0 |